THOR III

Last updated on Fri Jul 19 2019 04:11:51 GMT+0000 (Coordinated Universal Time)

1 25358U 98035A 19199.85975653 -.00000123 00000-0 00000+0 0 9991 2 25358 7.1494 55.5888 0001187 86.6588 296.3260 0.98830422 77386
UTC large
Height (km)
Speed (km/s)
/
Latitude / Longitude
Inclination (degrees)
Orbital Period (minutes)
Azimuth
Elevation
Range (km)
Doppler Factor

Next 0 passes for location: London (51.5072 / 0.1276)

Sorry there are no passes over London.